STARLINK-1857 (47144 NORAD) Tracking and Keplerian Element Data

This shows tracking and keplerian element data for the satellite.

Feedback or suggestion? Click here.




ElementValue
Catalog47144
NameSTARLINK-1857
Epoch Orbit969
Epoch Day21.16668981
Epoch Year2021
RAAN72.9128
Inclination53.0548
Eccentricity0.0001677
Argument of Perigee52.0356
Mean Anonmoly5.4012
Mean Motion15.62746324
Decay Rate0.00033686
L11 47144U 20088Y 21021.16668981 .00033686 00000-0 37230-3 0 9993
L22 47144 53.0548 72.9128 0001677 52.0356 5.4012 15.62746324 9694

Live tracking and technical data element details for STARLINK-1857 (NORAD 47144). STARLINK-1857 can be tracked NOW for your location showing map with azimuth and elevation plus other details from your city location.

Track the satellite on the map from your city or location and see movement details for azimuth, elevation, latitude, longitude, range, height, and movement on the map or in text.







IsCatalogInMostPopularTable: catalog: 47144, numindb: 20
Update: records affected: 1



GetName: 47144 STARLINK-1857

Hit Count: updated at: Fri, 22 Jan 2021 16:23:37 GMT